RAMSAT (48850 NORAD) Tracking and Keplerian Element Data

This shows tracking and keplerian element data for the satellite.

Feedback or suggestion? Click here.




ElementValue
Catalog48850
NameRAMSAT
Epoch Orbit764
Epoch Day214.44283495
Epoch Year2021
RAAN113.5925
Inclination51.6423
Eccentricity0.0003603
Argument of Perigee318.0835
Mean Anonmoly41.9877
Mean Motion15.50252661
Decay Rate5.126E-05
L11 48850U 98067SL 21214.44283495 .00005126 00000-0 96889-4 0 9992
L22 48850 51.6423 113.5925 0003603 318.0835 41.9877 15.50252661 7640

Live tracking and technical data element details for RAMSAT (NORAD 48850). RAMSAT can be tracked NOW for your location showing map with azimuth and elevation plus other details from your city location.

Track the satellite on the map from your city or location and see movement details for azimuth, elevation, latitude, longitude, range, height, and movement on the map or in text.







IsCatalogInMostPopularTable: catalog: 48850, numindb: 12
Update: records affected: 1



GetName: 48850 RAMSAT

Hit Count: updated at: Tue, 03 Aug 2021 23:34:30 GMT